SCP
0 0 0 0 0 0 0 0 0 0 0 0 0 0 0 0 0 0 0 0 0 0 0 0 0 0 0 0 0 0 0 0 1 0 0 0 0 0 0 0 0 0 0
0 0 0 0 0 0 0 0 0 0 0 0 0 0 0 0 0 0 0 0 0 0 0 0 0 0 0 0 0 0 0 0 0 0 0 0 0 0 0 0 0 0 0
0 0 0 0 0 0 0 0 0 0 0 0 0 0 0 0 0 0 0 0 0 0 0 0 0 0 0 0 0 0 0 0 0 0 0 0 0 0 0 0 0 0 0
0 0 0 0 0 0 0 0 0 0 0 0 0 0 0 0 0 0 0 0 0 0 0 0 0 0 0 0 0 0 0 0 0 0 0 0 0 0 0 0 0 0 0
0 0 0 0 0 0 0 0 0 0 0 0 0 0 0 0 0 0 0 0 0 0 0 0 0 0 0 0 0 0 0 -0 -0 0 0 0 0 0 0 0 0 0 0
0 0 0 0 0 0 0 0 0 0 0 0 0 0 0 0 0 0 0 0 0 0 0 0 0 0 0 0 0 0 0 0 0 0 0 0 0 0 0 0 0 0 0
0 0 0 0 0 0 0 0 0 0 0 0 0 0 0 0 0 0 0 0 0 0 0 0 0 0 0 0 0 0 0 0 0 0 0 0 0 0 0 0 0 0 0
0 0 0 0 0 0 0 0 0 0 0 0 0 0 0 0 0 0 0 0 0 0 0 0 0 0 0 0 0 0 0 0 0 0 0 0 0 0 0 0 0 0 0
0 0 0 0 0 0 0 0 0 0 0 0 0 0 0 0 0 0 0 0 0 0 0 0 0 0 0 0 0 0 0 0 0 0 0 0 0 0 0 0 0 0 0
0 0 0 0 0 0 0 0 0 0 0 0 0 0 0 0 0 0 0 0 0 0 0 0 0 0 0 0 0 0 0 0 0 0 0 0 0 0 0 0 0 0 0
0 0 0 0 0 0 0 0 0 0 0 0 0 0 0 0 0 0 0 0 0 0 0 0 0 0 0 0 0 0 0 0 0 0 0 0 0 0 0 0 0 0 0
0 0 0 0 0 0 0 0 0 0 0 0 0 0 0 0 0 0 0 0 0 0 0 0 0 0 0 0 0 0 0 0 0 0 0 0 0 0 0 0 0 0 0
0 0 0 0 0 0 0 0 0 0 0 0 0 0 0 0 0 0 0 0 0 0 0 0 0 0 0 0 0 0 0 0 0 0 0 0 0 0 0 0 0 0 0
0 0 0 0 0 0 0 0 0 0 0 0 0 0 0 0 0 0 0 0 0 0 0 0 0 0 0 0 0 0 0 0 0 0 0 0 0 0 0 0 0 0 0
0 0 0 0 0 0 0 0 0 0 0 0 0 0 0 0 0 0 0 0 0 0 0 0 0 0 0 0 0 0 0 0 0 0 0 0 0 0 0 0 0 0 0
0 0 0 0 0 0 0 0 0 0 0 0 0 0 0 0 0 0 0 0 0 0 0 0 0 0 0 0 0 0 0 0 0 0 0 0 0 0 0 0 0 0 0
0 0 0 0 0 0 0 0 0 0 0 0 0 0 0 0 0 0 0 0 0 0 0 0 0 0 0 0 0 0 0 0 0 0 0 0 0 0 0 0 0 0 0
0 0 0 0 0 0 0 0 0 0 0 0 0 0 0 0 0 0 0 0 0 0 0 0 0 0 0 0 0 0 0 0 0 0 0 0 0 0 0 0 0 0 0
0 0 0 0 0 0 0 0 0 0 0 0 0 0 0 0 0 0 0 0 0 0 0 0 0 0 0 0 0 0 0 0 0 0 0 0 0 0 0 0 0 0 0
0 0 0 0 0 0 0 0 0 0 0 0 0 0 0 0 0 0 0 0 0 0 0 0 0 0 0 0 0 0 0 0 0 0 0 0 0 0 0 0 0 0 0
0 0 0 0 0 0 0 0 0 0 0 0 0 0 0 0 0 0 0 0 0 0 0 0 0 0 0 0 0 0 0 0 0 0 0 0 0 0 0 0 0 0 0
0 0 0 0 0 0 0 0 0 0 0 0 0 0 0 0 0 0 0 0 0 0 0 0 0 0 0 0 0 0 0 0 0 0 0 0 0 0 0 0 0 0 0
0 0 0 0 0 0 0 0 0 0 0 0 0 0 0 0 0 0 0 0 0 0 0 0 0 0 0 0 0 0 0 0 0 0 0 0 0 0 0 0 0 0 0
0 0 0 0 0 0 0 0 0 0 0 0 0 0 0 0 0 0 0 0 0 0 0 0 0 0 0 0 0 0 0 0 0 0 0 0 0 0 0 0 0 0 0
0 0 0 0 0 0 0 0 0 0 0 0 0 0 0 0 0 0 0 0 0 0 0 0 0 0 0 0 0 0 0 0 0 0 0 0 0 0 0 0 0 0 0
0 0 0 0 0 0 0 0 0 0 0 0 0 0 0 0 0 0 0 0 0 0 0 0 0 0 0 0 0 0 0 0 0 0 0 0 0 0 0 0 0 0 0
Wind_Speed_500mb
43 45 47 48 49 49 50 51 52 53 54 55 57 60 63 65 66 68 69 69 70 70 68 68 69 66 67 68 75 73 75 74 87 97 87 90 77 86 89 81 83 88 88
46 49 51 53 54 55 56 56 57 59 59 61 63 65 64 63 63 65 67 68 71 72 71 71 71 71 72 70 72 79 87 85 86 78 81 80 84 76 77 73 72 77 86
43 45 48 51 54 56 58 61 61 62 63 63 63 63 63 61 61 61 61 61 61 61 63 63 65 69 71 73 73 73 74 78 82 78 89 87 80 77 71 74 70 71 74
52 52 53 53 54 54 54 56 57 59 60 61 62 62 60 57 60 61 62 61 58 56 54 53 54 57 60 64 66 67 69 69 66 66 68 67 65 66 60 58 64 66 68
54 53 53 52 52 53 53 53 54 55 56 57 57 57 56 54 60 63 64 61 58 56 53 49 45 45 46 50 54 56 57 59 59 56 53 52 50 48 46 39 40 50 53
56 56 57 56 56 57 57 56 54 51 49 49 50 51 51 50 56 59 59 59 54 51 50 48 43 46 43 41 41 40 43 46 43 42 41 39 41 39 37 37 31 29 24
55 56 58 59 59 59 58 57 56 54 51 48 47 49 49 49 55 56 55 48 44 45 45 48 46 45 46 42 37 39 42 41 36 32 36 35 35 34 35 34 33 32 31
51 54 57 59 58 56 53 52 51 49 49 49 49 49 50 47 52 52 54 47 41 37 40 42 41 41 43 43 40 32 39 39 37 36 33 31 32 35 30 30 33 34 31
54 55 55 55 56 56 56 55 53 52 49 47 46 47 46 46 49 50 53 48 41 37 34 38 40 41 42 42 37 33 27 34 32 30 26 25 30 34 33 29 25 24 21
50 49 48 47 48 47 47 48 47 47 47 46 45 44 43 44 45 45 45 48 44 42 37 36 37 39 36 41 41 37 36 37 34 30 25 25 27 28 27 25 23 21 20
35 33 34 36 38 40 41 44 47 48 47 47 47 45 41 42 43 41 43 47 46 45 39 38 38 39 41 36 38 36 33 33 30 28 26 26 27 28 28 27 24 21 20
25 27 29 32 36 40 45 47 48 50 51 50 51 49 43 44 41 39 41 38 40 45 41 39 39 37 36 36 35 35 34 33 30 28 28 30 31 32 31 30 27 24 23
21 25 30 35 40 45 49 51 51 51 52 52 50 50 50 47 45 35 43 42 41 42 39 40 39 38 37 36 35 35 33 30 30 30 31 32 33 34 34 33 32 31 29
26 33 38 42 46 49 52 53 54 53 54 52 52 48 49 49 44 39 44 51 55 47 44 37 37 36 34 32 30 30 30 31 32 34 35 35 36 37 37 38 40 41 40
35 40 43 48 53 56 56 55 56 53 51 53 52 48 54 51 44 41 42 44 48 44 43 38 36 33 32 32 30 30 31 32 34 36 38 40 41 42 42 43 43 43 43
40 43 49 55 58 59 62 64 55 53 55 49 47 48 52 50 40 41 39 40 41 39 38 38 37 35 35 35 36 36 35 36 38 40 40 42 44 45 47 47 45 45 46
45 49 54 58 60 62 64 65 70 64 48 51 49 45 45 48 46 39 36 39 39 37 36 36 36 36 37 38 39 41 43 43 43 43 45 46 47 49 51 51 50 50 51
48 52 56 59 62 63 63 63 63 63 66 58 41 47 47 42 44 41 37 43 38 36 37 38 39 39 39 41 43 45 46 47 47 47 47 47 48 50 52 52 52 53 55
51 54 59 61 62 61 59 58 58 57 56 55 53 41 42 42 43 39 38 41 42 42 42 43 43 43 43 45 46 47 48 50 50 50 50 51 52 53 54 54 54 54 57
52 57 58 59 57 55 54 55 55 54 52 51 50 49 47 45 43 43 43 42 42 44 44 45 46 46 46 47 48 49 50 51 51 51 51 51 50 51 53 54 55 58 59
53 55 56 53 52 52 52 52 53 54 54 53 51 48 46 45 49 48 48 47 48 48 48 49 50 49 49 49 49 50 51 51 50 50 50 50 50 53 51 54 56 56 59
54 56 52 50 49 48 48 49 50 51 50 51 50 47 45 47 48 49 49 49 48 49 48 49 49 48 48 49 50 51 52 52 50 50 51 51 52 54 56 58 59 62 66
54 52 50 48 47 47 47 47 48 48 48 48 48 48 45 45 46 46 47 47 47 47 46 47 48 48 47 49 50 51 53 51 49 50 52 54 54 56 57 60 63 68 73
51 50 48 46 45 45 46 46 47 47 48 49 48 48 47 47 47 47 47 47 48 48 48 49 49 49 49 49 50 51 52 52 52 51 51 55 57 57 57 64 67 72 80
48 47 47 46 46 46 47 48 47 48 49 49 50 50 50 50 50 50 50 50 51 51 49 49 50 50 50 51 51 51 51 50 50 49 50 53 57 55 60 66 71 79 78
45 45 45 45 46 47 47 48 47 47 48 48 49 50 51 51 50 50 50 50 51 50 49 49 48 48 50 50 50 51 51 50 49 45 48 54 55 59 66 76 83 78 81
Wind_Direction_500mb
357 354 350 347 343 340 337 334 331 329 328 326 327 326 323 321 318 315 313 312 310 309 307 304 299 296 290 286 284 293 293 283 285 281 286 290 283 283 279 281 275 286 275
346 343 340 338 336 334 332 330 327 325 324 323 322 321 319 318 317 315 315 316 316 316 315 312 309 305 298 293 289 284 277 289 281 297 299 287 289 281 285 282 283 283 269
338 335 332 330 329 327 325 323 323 323 322 321 320 319 319 318 314 313 314 316 317 318 317 315 313 308 308 305 305 303 298 293 292 298 292 291 284 289 285 281 280 273 268
333 332 331 331 330 328 326 324 322 322 322 321 322 321 321 321 316 317 319 321 321 322 320 318 314 313 312 312 313 312 309 307 305 303 302 305 298 294 286 284 275 264 259
334 334 331 331 330 329 329 327 325 323 322 321 320 320 320 322 318 322 322 324 323 322 322 321 320 317 316 316 317 316 317 317 316 316 317 315 315 315 318 301 290 277 268
332 332 332 332 331 331 329 326 324 324 324 322 320 319 320 321 318 320 323 324 324 321 320 320 323 319 318 320 322 328 327 327 331 331 322 328 322 327 318 321 323 309 295
328 328 328 329 330 329 329 329 329 328 328 327 325 324 324 323 319 321 323 327 327 326 324 322 323 319 320 320 322 323 321 323 329 334 331 328 321 321 318 314 310 308 311
323 324 325 327 329 330 332 332 332 332 331 329 327 324 324 326 324 326 327 329 328 326 327 328 330 330 335 331 326 325 324 324 324 329 334 333 321 317 315 311 308 301 293
324 326 327 329 332 334 335 337 336 335 336 334 332 329 329 328 328 331 334 336 335 335 332 330 335 341 345 340 337 333 324 323 331 333 328 319 318 320 327 326 322 330 330
321 326 331 335 339 341 343 343 342 340 339 338 336 334 332 330 331 337 345 343 340 339 334 331 337 343 348 347 346 347 346 346 345 344 341 335 335 340 346 349 349 352 345
327 335 341 344 344 344 343 340 338 336 332 330 330 330 329 328 330 335 344 342 341 336 333 333 335 339 341 343 344 350 348 342 344 346 346 343 347 355 -0 1 1 357 346
336 341 343 343 341 336 333 332 331 329 327 327 325 326 327 326 330 334 339 342 338 333 327 329 331 334 334 338 341 343 344 345 347 348 349 352 354 355 355 355 353 350 341
328 332 332 330 328 327 327 326 325 324 321 320 319 319 318 321 325 328 331 332 336 326 325 327 326 328 331 336 340 342 343 347 350 350 351 351 351 349 346 344 344 341 340
319 322 323 324 325 324 323 322 321 321 318 315 316 314 310 315 316 321 325 323 324 321 323 325 327 330 331 333 337 340 344 347 349 347 346 345 344 343 343 342 340 338 335
315 318 321 321 321 321 320 320 319 318 315 311 311 306 307 308 313 316 317 318 318 319 321 323 325 327 329 332 337 341 342 342 342 342 339 338 338 337 336 337 336 335 333
312 316 317 318 319 319 319 318 317 315 313 310 304 301 303 304 305 309 309 310 315 317 321 323 324 327 330 332 334 336 338 337 336 335 335 334 332 331 329 331 333 331 329
308 311 313 315 316 317 317 317 317 316 312 310 308 304 302 303 305 310 308 311 317 316 317 318 320 323 325 327 328 329 329 330 330 331 331 329 328 327 326 327 329 328 325
304 309 312 314 315 315 315 315 314 315 316 319 314 311 312 310 307 309 307 312 314 313 314 314 315 317 318 319 320 321 321 323 325 326 325 324 324 324 323 324 324 322 321
306 310 311 312 313 313 313 314 314 314 314 316 319 317 312 312 311 309 310 311 311 311 312 312 313 314 316 316 316 317 317 318 319 320 321 321 323 322 321 321 320 320 320
304 307 309 310 311 313 313 313 314 314 314 315 316 317 318 313 312 314 314 313 312 312 312 311 312 313 314 314 314 313 313 314 315 316 316 316 317 317 318 318 318 318 317
304 306 309 310 312 313 313 313 314 312 312 313 313 313 314 309 312 311 311 312 312 310 310 310 311 311 312 312 311 312 313 315 317 316 315 315 315 316 317 316 316 317 317
307 310 310 311 313 314 315 316 316 314 315 315 317 316 312 309 309 309 310 310 309 310 310 310 311 312 313 313 313 313 313 315 315 314 313 314 314 316 317 317 317 318 318
308 309 310 312 313 315 316 317 318 318 319 320 320 320 320 317 316 315 315 314 313 313 313 312 312 313 313 312 312 312 312 313 312 311 311 310 312 314 315 314 315 316 318
307 308 309 310 311 313 314 314 315 315 316 316 317 317 317 317 317 316 315 314 313 313 313 312 312 313 312 311 311 311 310 311 310 310 308 309 311 314 313 314 313 314 317
303 303 306 309 311 312 312 313 314 314 314 315 315 315 316 316 315 315 314 313 313 312 313 312 312 312 310 309 309 309 309 309 307 306 304 304 307 310 312 314 317 316 316
300 303 306 308 310 311 312 313 314 314 314 314 315 315 315 315 315 315 314 314 313 313 313 313 314 314 314 314 313 311 310 309 307 305 303 306 308 312 317 318 321 319 317
Wind_Speed_850mb
43 45 47 48 49 49 50 51 52 53 54 55 57 60 63 65 66 68 69 69 70 70 68 68 69 66 67 68 75 73 75 74 87 97 87 90 77 86 89 81 83 88 88
46 49 51 53 54 55 56 56 57 59 59 61 63 65 64 63 63 65 67 68 71 72 71 71 71 71 72 70 72 79 87 85 86 78 81 80 84 76 77 73 72 77 86
43 45 48 51 54 56 58 61 61 62 63 63 63 63 63 61 61 61 61 61 61 61 63 63 65 69 71 73 73 73 74 78 82 78 89 87 80 77 71 74 70 71 74
52 52 53 53 54 54 54 56 57 59 60 61 62 62 60 57 60 61 62 61 58 56 54 53 54 57 60 64 66 67 69 69 66 66 68 67 65 66 60 58 64 66 68
54 53 53 52 52 53 53 53 54 55 56 57 57 57 56 54 60 63 64 61 58 56 53 49 45 45 46 50 54 56 57 59 59 56 53 52 50 48 46 39 40 50 53
56 56 57 56 56 57 57 56 54 51 49 49 50 51 51 50 56 59 59 59 54 51 50 48 43 46 43 41 41 40 43 46 43 42 41 39 41 39 37 37 31 29 24
55 56 58 59 59 59 58 57 56 54 51 48 47 49 49 49 55 56 55 48 44 45 45 48 46 45 46 42 37 39 42 41 36 32 36 35 35 34 35 34 33 32 31
51 54 57 59 58 56 53 52 51 49 49 49 49 49 50 47 52 52 54 47 41 37 40 42 41 41 43 43 40 32 39 39 37 36 33 31 32 35 30 30 33 34 31
54 55 55 55 56 56 56 55 53 52 49 47 46 47 46 46 49 50 53 48 41 37 34 38 40 41 42 42 37 33 27 34 32 30 26 25 30 34 33 29 25 24 21
50 49 48 47 48 47 47 48 47 47 47 46 45 44 43 44 45 45 45 48 44 42 37 36 37 39 36 41 41 37 36 37 34 30 25 25 27 28 27 25 23 21 20
35 33 34 36 38 40 41 44 47 48 47 47 47 45 41 42 43 41 43 47 46 45 39 38 38 39 41 36 38 36 33 33 30 28 26 26 27 28 28 27 24 21 20
25 27 29 32 36 40 45 47 48 50 51 50 51 49 43 44 41 39 41 38 40 45 41 39 39 37 36 36 35 35 34 33 30 28 28 30 31 32 31 30 27 24 23
21 25 30 35 40 45 49 51 51 51 52 52 50 50 50 47 45 35 43 42 41 42 39 40 39 38 37 36 35 35 33 30 30 30 31 32 33 34 34 33 32 31 29
26 33 38 42 46 49 52 53 54 53 54 52 52 48 49 49 44 39 44 51 55 47 44 37 37 36 34 32 30 30 30 31 32 34 35 35 36 37 37 38 40 41 40
35 40 43 48 53 56 56 55 56 53 51 53 52 48 54 51 44 41 42 44 48 44 43 38 36 33 32 32 30 30 31 32 34 36 38 40 41 42 42 43 43 43 43
40 43 49 55 58 59 62 64 55 53 55 49 47 48 52 50 40 41 39 40 41 39 38 38 37 35 35 35 36 36 35 36 38 40 40 42 44 45 47 47 45 45 46
45 49 54 58 60 62 64 65 70 64 48 51 49 45 45 48 46 39 36 39 39 37 36 36 36 36 37 38 39 41 43 43 43 43 45 46 47 49 51 51 50 50 51
48 52 56 59 62 63 63 63 63 63 66 58 41 47 47 42 44 41 37 43 38 36 37 38 39 39 39 41 43 45 46 47 47 47 47 47 48 50 52 52 52 53 55
51 54 59 61 62 61 59 58 58 57 56 55 53 41 42 42 43 39 38 41 42 42 42 43 43 43 43 45 46 47 48 50 50 50 50 51 52 53 54 54 54 54 57
52 57 58 59 57 55 54 55 55 54 52 51 50 49 47 45 43 43 43 42 42 44 44 45 46 46 46 47 48 49 50 51 51 51 51 51 50 51 53 54 55 58 59
53 55 56 53 52 52 52 52 53 54 54 53 51 48 46 45 49 48 48 47 48 48 48 49 50 49 49 49 49 50 51 51 50 50 50 50 50 53 51 54 56 56 59
54 56 52 50 49 48 48 49 50 51 50 51 50 47 45 47 48 49 49 49 48 49 48 49 49 48 48 49 50 51 52 52 50 50 51 51 52 54 56 58 59 62 66
54 52 50 48 47 47 47 47 48 48 48 48 48 48 45 45 46 46 47 47 47 47 46 47 48 48 47 49 50 51 53 51 49 50 52 54 54 56 57 60 63 68 73
51 50 48 46 45 45 46 46 47 47 48 49 48 48 47 47 47 47 47 47 48 48 48 49 49 49 49 49 50 51 52 52 52 51 51 55 57 57 57 64 67 72 80
48 47 47 46 46 46 47 48 47 48 49 49 50 50 50 50 50 50 50 50 51 51 49 49 50 50 50 51 51 51 51 50 50 49 50 53 57 55 60 66 71 79 78
45 45 45 45 46 47 47 48 47 47 48 48 49 50 51 51 50 50 50 50 51 50 49 49 48 48 50 50 50 51 51 50 49 45 48 54 55 59 66 76 83 78 81
Wind_Direction_850mb
357 354 350 347 343 340 337 334 331 329 328 326 327 326 323 321 318 315 313 312 310 309 307 304 299 296 290 286 284 293 293 283 285 281 286 290 283 283 279 281 275 286 275
346 343 340 338 336 334 332 330 327 325 324 323 322 321 319 318 317 315 315 316 316 316 315 312 309 305 298 293 289 284 277 289 281 297 299 287 289 281 285 282 283 283 269
338 335 332 330 329 327 325 323 323 323 322 321 320 319 319 318 314 313 314 316 317 318 317 315 313 308 308 305 305 303 298 293 292 298 292 291 284 289 285 281 280 273 268
333 332 331 331 330 328 326 324 322 322 322 321 322 321 321 321 316 317 319 321 321 322 320 318 314 313 312 312 313 312 309 307 305 303 302 305 298 294 286 284 275 264 259
334 334 331 331 330 329 329 327 325 323 322 321 320 320 320 322 318 322 322 324 323 322 322 321 320 317 316 316 317 316 317 317 316 316 317 315 315 315 318 301 290 277 268
332 332 332 332 331 331 329 326 324 324 324 322 320 319 320 321 318 320 323 324 324 321 320 320 323 319 318 320 322 328 327 327 331 331 322 328 322 327 318 321 323 309 295
328 328 328 329 330 329 329 329 329 328 328 327 325 324 324 323 319 321 323 327 327 326 324 322 323 319 320 320 322 323 321 323 329 334 331 328 321 321 318 314 310 308 311
323 324 325 327 329 330 332 332 332 332 331 329 327 324 324 326 324 326 327 329 328 326 327 328 330 330 335 331 326 325 324 324 324 329 334 333 321 317 315 311 308 301 293
324 326 327 329 332 334 335 337 336 335 336 334 332 329 329 328 328 331 334 336 335 335 332 330 335 341 345 340 337 333 324 323 331 333 328 319 318 320 327 326 322 330 330
321 326 331 335 339 341 343 343 342 340 339 338 336 334 332 330 331 337 345 343 340 339 334 331 337 343 348 347 346 347 346 346 345 344 341 335 335 340 346 349 349 352 345
327 335 341 344 344 344 343 340 338 336 332 330 330 330 329 328 330 335 344 342 341 336 333 333 335 339 341 343 344 350 348 342 344 346 346 343 347 355 -0 1 1 357 346
336 341 343 343 341 336 333 332 331 329 327 327 325 326 327 326 330 334 339 342 338 333 327 329 331 334 334 338 341 343 344 345 347 348 349 352 354 355 355 355 353 350 341
328 332 332 330 328 327 327 326 325 324 321 320 319 319 318 321 325 328 331 332 336 326 325 327 326 328 331 336 340 342 343 347 350 350 351 351 351 349 346 344 344 341 340
319 322 323 324 325 324 323 322 321 321 318 315 316 314 310 315 316 321 325 323 324 321 323 325 327 330 331 333 337 340 344 347 349 347 346 345 344 343 343 342 340 338 335
315 318 321 321 321 321 320 320 319 318 315 311 311 306 307 308 313 316 317 318 318 319 321 323 325 327 329 332 337 341 342 342 342 342 339 338 338 337 336 337 336 335 333
312 316 317 318 319 319 319 318 317 315 313 310 304 301 303 304 305 309 309 310 315 317 321 323 324 327 330 332 334 336 338 337 336 335 335 334 332 331 329 331 333 331 329
308 311 313 315 316 317 317 317 317 316 312 310 308 304 302 303 305 310 308 311 317 316 317 318 320 323 325 327 328 329 329 330 330 331 331 329 328 327 326 327 329 328 325
304 309 312 314 315 315 315 315 314 315 316 319 314 311 312 310 307 309 307 312 314 313 314 314 315 317 318 319 320 321 321 323 325 326 325 324 324 324 323 324 324 322 321
306 310 311 312 313 313 313 314 314 314 314 316 319 317 312 312 311 309 310 311 311 311 312 312 313 314 316 316 316 317 317 318 319 320 321 321 323 322 321 321 320 320 320
304 307 309 310 311 313 313 313 314 314 314 315 316 317 318 313 312 314 314 313 312 312 312 311 312 313 314 314 314 313 313 314 315 316 316 316 317 317 318 318 318 318 317
304 306 309 310 312 313 313 313 314 312 312 313 313 313 314 309 312 311 311 312 312 310 310 310 311 311 312 312 311 312 313 315 317 316 315 315 315 316 317 316 316 317 317
307 310 310 311 313 314 315 316 316 314 315 315 317 316 312 309 309 309 310 310 309 310 310 310 311 312 313 313 313 313 313 315 315 314 313 314 314 316 317 317 317 318 318
308 309 310 312 313 315 316 317 318 318 319 320 320 320 320 317 316 315 315 314 313 313 313 312 312 313 313 312 312 312 312 313 312 311 311 310 312 314 315 314 315 316 318
307 308 309 310 311 313 314 314 315 315 316 316 317 317 317 317 317 316 315 314 313 313 313 312 312 313 312 311 311 311 310 311 310 310 308 309 311 314 313 314 313 314 317
303 303 306 309 311 312 312 313 314 314 314 315 315 315 316 316 315 315 314 313 313 312 313 312 312 312 310 309 309 309 309 309 307 306 304 304 307 310 312 314 317 316 316
300 303 306 308 310 311 312 313 314 314 314 314 315 315 315 315 315 315 314 314 313 313 313 313 314 314 314 314 313 311 310 309 307 305 303 306 308 312 317 318 321 319 317